星链-31669 (STARLINK-31669 )

导读 | 豆包AI

STARLINK-31669是美国SpaceX公司星链(Starlink)星座的成员卫星,于2024年4月17日发射入轨。星链星座旨在构建全球低轨宽带互联网,为偏远基础设施匮乏地区提供高速低延迟网络服务。 该星链卫星采用量产平板设计,搭载氪工质霍尔推进器,具备自主避撞能力,寿命末期会主动离轨坠入大气层焚毁,单星设计使用寿命约5至7年,助力实现全球覆盖的宽带通信服务。

基本信息
目录编号:
59515
目录名称:
STARLINK-31669
国际标识:
2024-073E
轨道中心:
EARTH
卫星名称:
星链-31669
卫星全名:
星链-31669 (STARLINK-31669 )
卫星状态:
在轨 (已飞行743 天)
发射日期:
2024-04-17 UTC
国别 :
美国 (US)
星等 :
--
轨道信息
数据来源 国际轨道数据
星历时间: 2026-04-29T19:07:40+0800
13小时前
查看轨道信息
半长轴: 6861.196km
偏心率: 0.0000905
轨道倾角: 43.004°
近地点辐角 291.144°
升交点赤经 31.037°
平近点角 68.931°
近地点: 482.438km
远地点: 483.68km
周期: 94.267分钟
每日圈数: 15.27577
详细信息
固有亮度:
5
最大亮度:
1.5
卫星平台:
Starlink v2.0 mini
覆盖范围:
全球
运营商:
太空探索技术公司
运营商所在国:
美国
制造商(研发单位):
太空探索技术公司
制造商所在国:
美国
使用方式:
暂无
卫星简介
星链(Starlink)计划是由太空探索技术公司(SpaceX)提出的一个巨型低轨卫星互联网星座项目,计划在2019年至2024年间在太空搭建由约1.2万颗卫星组成的“星链”网络,其中1584颗将部署在地球上空550千米处的近地轨道,并从2020年开始工作。该卫星仍在工作。
2D轨道图
3D轨道图
轨道高度分析图
轨道倾角分析图
轨道综合分析图
查看轨道综合分析图